{"data":{"norad_id":53320,"epoch":"2026-05-24T20:11:49.229664Z","epoch_age_seconds":85367,"freshness":"FRESH","line1":"1 53320U 22088E   26144.84154201  .00036620  00000+0  79072-3 0  9999","line2":"2 53320  34.9962 303.7248 0001650  63.9765 296.1126 15.43508276213322","mean_motion":15.43508276,"eccentricity":0.000165,"inclination_deg":34.9962,"raan_deg":303.7248,"arg_perigee_deg":63.9765,"mean_anomaly_deg":296.1126,"bstar":0.00079072,"rev_number":21332,"period_min":93.293960414113,"perigee_km":434.64044377906,"apogee_km":436.88903135246,"semimajor_km":6813.9017375658,"source":"CELESTRAK","updated_at":"2026-05-25T13:37:58.152089Z"}}